Location: Gleizolles
(44.4833°N, 6.7667°E)
Time: 14:54:53
(UTC+00:00)

deb Explorer IX - Pass Details

Date: 30 June 2024
Orbit: 510 x 878 km, 38.7° (Epoch: 21 July)

Event Time Altitude Azimuth Distance (km) Brightness Sun altitude
Rises 03:42:52 0° 208° (SSW) 2,600 ? -2.1°
Reaches altitude 10° 03:46:09 10° 178° (S) 1,717 ? -1.7°
Maximum altitude 03:47:53 13° 152° (SSE) 1,566 ? -1.4°
Drops below altitude 10° 03:49:37 10° 125° (SE) 1,741 ? -1.2°
Sets 03:53:00 0° 96° (E) 2,676 ? -0.7°
